Regional Weather Roundup
Issued by NWS

Home | Current Version | Previous Version | Graphics & Text | Print | Product List | Glossary On
Versions: 1 2 3 4 5 6 7 8 9 10 11 12 13 14 15 16 17 18 19 20 21 22 23 24 25 26 27 28 29 30 31 32 33 34 35 36 37 38 39 40 41 42 43 44 45 46 47 48 49 50
000
ASUS43 KOAX 010602
RWRNE

WEATHER ROUNDUP FOR NEBRASKA
NATIONAL WEATHER SERVICE OMAHA NE
100 AM CDT FRI AUG 01 2014

NOTES: SATELLITE DATA IS BEING USED TO AUGMENT CLOUD COVER ABOVE
       12000 FEET.
       "FAIR" INDICATES FEW OR NO CLOUDS BELOW 12,000 FEET WITH NO
       SIGNIFICANT WEATHER AND/OR OBSTRUCTIONS TO VISIBILITY.

  * THESE STATIONS DO NOT REPORT WEATHER SUCH AS RAIN...SNOW OR FOG.

NEZ001>004-019>022-054>056-010700-
NEBRASKA PANHANDLE

CITY           SKY/WX    TMP DP  RH WIND       PRES   REMARKS
SCOTTSBLUFF    CLEAR     61  52  72 E7        30.19S
6HR MIN TEMP:  61; 6HR MAX TEMP:  85;

ALLIANCE       PTCLDY    63  46  54 CALM      30.18F
6HR MIN TEMP:  61; 6HR MAX TEMP:  86;

CHADRON        CLEAR     60  47  61 CALM      30.15S
6HR MIN TEMP:  60; 6HR MAX TEMP:  86;

KIMBALL        CLEAR     59  51  73 SW5       30.23F
SIDNEY         CLEAR     62  44  51 E6        30.22S
6HR MIN TEMP:  61; 6HR MAX TEMP:  85;

$$

NEZ057>060-069>072-079>082-010700-
SOUTHWEST NEBRASKA

CITY           SKY/WX    TMP DP  RH WIND       PRES   REMARKS
NORTH PLATTE   CLEAR     60  52  74 NE3       30.13R
6HR MIN TEMP:  59; 6HR MAX TEMP:  85;

IMPERIAL       CLEAR     65  54  67 E3        30.15S
6HR MIN TEMP:  65; 6HR MAX TEMP:  85;

LEXINGTON      CLEAR     60  56  88 NW5       30.10F
MCCOOK         CLEAR     66  55  67 N3        30.11S
6HR MIN TEMP:  65; 6HR MAX TEMP:  88;

OGALLALA       CLEAR     56  51  82 CALM      30.16R
$$

NEZ005>010-023>029-035>040-094-010700-
NORTH CENTRAL NEBRASKA

CITY           SKY/WX    TMP DP  RH WIND       PRES   REMARKS
VALENTINE      CLEAR     68  58  70 S7        30.11S
6HR MIN TEMP:  68; 6HR MAX TEMP:  86;

AINSWORTH      CLEAR     62  60  94 S3        30.12S
BROKEN BOW     CLEAR     59  57  93 N3        30.11S
6HR MIN TEMP:  59; 6HR MAX TEMP:  84;

O`NEILL        CLEAR     65  62  91 CALM      30.10S
ORD            CLEAR     62  60  93 CALM      30.08S
6HR MIN TEMP:  60; 6HR MAX TEMP:  84;

THEDFORD       CLEAR     63  55  75 CALM      30.14S
$$

NEZ041-046>049-061>064-073>077-083>087-010700-
SOUTH CENTRAL NEBRASKA

CITY           SKY/WX    TMP DP  RH WIND       PRES   REMARKS
GRAND ISLAND   CLEAR     64  60  87 N6        30.07S
6HR MIN TEMP:  64; 6HR MAX TEMP:  87;

AURORA         CLEAR     65  64  99 N6        30.05S
HASTINGS       CLEAR     66  61  84 N6        30.06R
6HR MIN TEMP:  66; 6HR MAX TEMP:  86;

HEBRON         MOCLDY    70  52  52 SW5       30.04S
HOLDREGE       CLEAR     62  58  87 N7        30.08S
KEARNEY *      CLEAR     64  61  88 N8        30.09S
YORK           CLEAR     63  63 100 NE5       30.04S
$$

NEZ011>018-030>034-042>045-010700-
NORTHEAST NEBRASKA

CITY           SKY/WX    TMP DP  RH WIND       PRES   REMARKS
NORFOLK        CLEAR     63  59  87 CALM      30.07S
6HR MIN TEMP:  63; 6HR MAX TEMP:  78;

ALBION         CLEAR     63  59  87 CALM      30.08S
BLAIR          CLOUDY    68  58  69 N7        30.08R
COLUMBUS *     CLEAR     63  57  82 E6        30.06F
FREMONT        MOCLDY    68  62  81 E3        30.06S
TEKAMAH        MOCLDY    67  60  78 SE7       30.06F
6HR MIN TEMP:  64; 6HR MAX TEMP:  79;

WAYNE          CLEAR     60  59  97 CALM      30.08S FOG
$$

NEZ050>053-065>068-078-088>093-010700-
SOUTHEAST NEBRASKA

CITY           SKY/WX    TMP DP  RH WIND       PRES   REMARKS
LINCOLN        PTCLDY    69  57  65 E8        30.06R
6HR MIN TEMP:  69; 6HR MAX TEMP:  85;

OMAHA EPPLEY   CLOUDY    73  58  59 S9        30.06S THUNDER
6HR MIN TEMP:  71; 6HR MAX TEMP:  81;

BEATRICE       CLOUDY    68  60  76 SE8       30.05F
FALLS CITY     HVY RAIN  67  61  81 SE5       30.07R
6HR MIN TEMP:  67; 6HR MAX TEMP:  79; 6HR PCP:  0.04;

NEBRASKA CITY  MOCLDY    67  60  78 SE6       30.06F
PLATTSMOUTH    DRIZZLE   66  62  85 S5        30.07S
$$

NEZ044-045-051>053-067-010700-
OMAHA AREA

CITY           SKY/WX    TMP DP  RH WIND       PRES   REMARKS
OMAHA EPPLEY   CLOUDY    73  58  59 S9        30.06S THUNDER
6HR MIN TEMP:  71; 6HR MAX TEMP:  81;

BLAIR          CLOUDY    68  58  69 N7        30.08R
FREMONT        MOCLDY    68  62  81 E3        30.06S
MILLARD        MOCLDY    68  62  81 CALM      30.06S
OFFUTT AFB     CLOUDY    68  67  98 SE5       30.06S
PLATTSMOUTH    DRIZZLE   66  62  85 S5        30.07S
WAHOO          LGT RAIN  67  61  83 E6        30.06R
$$



USA.gov is the U.S. government's official web portal to all federal, state and local government web resources and services.